Skip Page Navigation
NASA JPL Caltech
NASA Logo - Jet Propulsion Laboratory + View the NASA Portal
+ Center for Near-Earth Object Studies
JPL Home Earth Solar System Stars & Galaxies Technology
JPL Solar System Dynamics
BODIES ORBITS EPHEMERIDES TOOLS PHYSICAL DATA DISCOVERY FAQ SITE MAP
JPL Small-Body Database Browser
Search: [ help ]  
24626 Astrowizard (1980 TS3)
Classification: Main-belt Asteroid          SPK-ID: 2024626
Ephemeris | Orbit Diagram | Orbital Elements | Mission Design | Physical Parameters | Discovery Circumstances | Close-Approach Data ]

[ show orbit diagram ]
Orbital Elements at Epoch 2459200.5 (2020-Dec-17.0) TDB
Reference: JPL 29 (heliocentric ecliptic J2000)
 Element Value Uncertainty (1-sigma)   Units 
e .2851351302038223 4.4309e-08  
a 2.77037317080087 9.7044e-09 au
q 1.980442456031388 1.2123e-07 au
i 8.205910413352417 5.016e-06 deg
node 183.0698006500052 2.3543e-05 deg
peri 203.0991070240251 2.4183e-05 deg
M 246.6517721939941 5.5829e-06 deg
tp 2459730.795655965303
(2022-May-31.29565597)
2.7446e-05 TDB
period 1684.247207413273
4.61
8.8496e-06
2.423e-08
d
yr
n .2137453447542899 1.1231e-09 deg/d
Q 3.560303885570352 1.2471e-08 au
  Orbit Determination Parameters
   # obs. used (total)      1369  
   data-arc span      14520 days (39.75 yr)  
   first obs. used      1980-09-07  
   last obs. used      2020-06-09  
   planetary ephem.      DE441  
   SB-pert. ephem.      SB441-N16  
   condition code      0  
   norm. resid. RMS      .50924  
   source      ORB  
   producer      Otto Matic  
   solution date      2021-Apr-13 04:45:29  

Additional Information
 Earth MOID = .985889 au 
 Jupiter MOID = 1.90221 au 
 T_jup = 3.263 
[ show covariance matrix ]

Ephemeris | Orbit Diagram | Orbital Elements | Mission Design | Physical Parameters | Discovery Circumstances | Close-Approach Data ]

Physical Parameter Table
Parameter Symbol Value Units Sigma Reference Notes
absolute magnitude H 14.24   n/a E2021B10  
diameter diameter 6.528 km 0.594 urn:nasa:pds:neowise_diameters_albedos::2.0[mainbelt] (http://adsabs.harvard.edu/abs/2011ApJ...741...68M)  
geometric albedo albedo 0.072   0.011 urn:nasa:pds:neowise_diameters_albedos::2.0[mainbelt] (http://adsabs.harvard.edu/abs/2011ApJ...741...68M)  

24626 Astrowizard           Discovered 1980 Oct. 9 by C. S. Shoemaker and E. M. Shoemaker at Palomar.
David V. Rodrigues (b. 1952) has dedicated his life to explaining the riches of the universe to anyone, anywhere. Wearing the costume of a wizard to get children's attention, he makes astronomy come alive in his presentations at the Morrison Planetarium in San Francisco and in school classes.
NOTE: some special characters may not display properly (any characters within {} are an attempt to place the proper accent above a character)
Reference: 20030501/MPCPages.arcLast Updated: 2003-10-02

[ show close-approach data ]
Alternate Designations
 1980 TS3 = 1998 ML13 = 2000 AA181 
Ephemeris | Orbit Diagram | Orbital Elements | Mission Design | Physical Parameters | Discovery Circumstances | Close-Approach Data ]
ABOUT SSD CREDITS/AWARDS PRIVACY/COPYRIGHT GLOSSARY LINKS
FirstGov 2021-Jun-24 10:21 UT
(server date/time)  
NASA Home Page
Site Manager:   Ryan S. Park
Webmaster  Alan B. Chamberlin